BAW786 EGLL-ESGG

Flight info

Callsign BAW786
Flight time 1h 29m
Altitude 37000
Route BPK Q295 PAAVO M604 GIVPO DCT LARGA DCT SOPTO DCT AAL N607 MAKUR
Aircraft A319/M-SDE3FGIJ1KRWXY/LB1

Departure

Time 2026-05-05 07:56
Airport London Heathrow Airport (EGLL)

Arrival

Time 2026-05-05 09:26
Airport Göteborg Landvetter Airport (ESGG)
Time Latitude Longitude Altitude Speed Heading
2026-05-05 07:45 51.47087 -0.48586 89 ft 0 kts 270°
2026-05-05 07:48 51.47087 -0.48550 89 ft 4 kts 270°
2026-05-05 07:49 51.47087 -0.48516 86 ft 4 kts 265°
2026-05-05 07:49 51.47095 -0.48480 89 ft 4 kts 213°
2026-05-05 07:49 51.47111 -0.48472 89 ft 3 kts 180°
2026-05-05 07:50 51.47116 -0.48472 89 ft 4 kts 180°
2026-05-05 07:50 51.47126 -0.48472 88 ft 0 kts 180°
2026-05-05 07:52 51.47120 -0.48472 89 ft 5 kts 179°
2026-05-05 07:52 51.47075 -0.48471 89 ft 8 kts 179°
2026-05-05 07:52 51.47014 -0.48470 86 ft 10 kts 179°
2026-05-05 07:52 51.46938 -0.48470 86 ft 12 kts 180°
2026-05-05 07:53 51.46849 -0.48469 86 ft 14 kts 179°
2026-05-05 07:53 51.46744 -0.48468 86 ft 16 kts 179°
2026-05-05 07:53 51.46647 -0.48467 86 ft 11 kts 180°
2026-05-05 07:53 51.46601 -0.48467 86 ft 1 kts 180°
2026-05-05 07:54 51.46594 -0.48467 86 ft 0 kts 180°
2026-05-05 07:54 51.46585 -0.48467 86 ft 3 kts 180°
2026-05-05 07:55 51.46554 -0.48466 86 ft 6 kts 180°
2026-05-05 07:55 51.46503 -0.48466 86 ft 8 kts 179°
2026-05-05 07:55 51.46479 -0.48376 87 ft 17 kts 90°
2026-05-05 07:55 51.46481 -0.47875 87 ft 75 kts 89°
2026-05-05 07:56 51.46484 -0.46731 89 ft 129 kts 89°
2026-05-05 07:56 51.46492 -0.45024 156 ft 170 kts 86°
2026-05-05 07:56 51.46503 -0.43143 822 ft 168 kts 85°
2026-05-05 07:56 51.46684 -0.41293 1531 ft 168 kts 63°
2026-05-05 07:57 51.47420 -0.39759 1949 ft 184 kts 45°
2026-05-05 07:57 51.48330 -0.38120 2318 ft 210 kts 48°
2026-05-05 07:57 51.49323 -0.36224 2828 ft 234 kts 49°
2026-05-05 07:57 51.50386 -0.34157 3615 ft 245 kts 49°
2026-05-05 07:58 51.51481 -0.32021 4539 ft 251 kts 50°
2026-05-05 07:58 51.52411 -0.29608 5414 ft 260 kts 68°
2026-05-05 07:58 51.53057 -0.26861 6308 ft 265 kts 64°
2026-05-05 07:58 51.53847 -0.24150 7117 ft 272 kts 62°
2026-05-05 07:59 51.54703 -0.21408 7949 ft 276 kts 61°
2026-05-05 07:59 51.55584 -0.18636 8814 ft 281 kts 62°
2026-05-05 07:59 51.56128 -0.16924 9328 ft 284 kts 62°
2026-05-05 08:00 51.56989 -0.14194 10095 ft 289 kts 62°
2026-05-05 08:00 51.57930 -0.11200 10416 ft 312 kts 62°
2026-05-05 08:00 51.58940 -0.07969 10682 ft 334 kts 62°
2026-05-05 08:01 51.59990 -0.04579 11282 ft 342 kts 63°
2026-05-05 08:01 51.61048 -0.01135 12015 ft 345 kts 63°
2026-05-05 08:01 51.62112 0.02347 12787 ft 347 kts 63°
2026-05-05 08:01 51.63179 0.05844 13556 ft 349 kts 64°
2026-05-05 08:02 51.64252 0.09363 14227 ft 352 kts 64°
2026-05-05 08:02 51.65338 0.12923 14850 ft 355 kts 64°
2026-05-05 08:02 51.66433 0.16512 15445 ft 360 kts 64°
2026-05-05 08:02 51.67559 0.20210 16044 ft 364 kts 65°
2026-05-05 08:03 51.68677 0.23894 16645 ft 369 kts 65°
2026-05-05 08:03 51.69807 0.27626 17223 ft 373 kts 65°
2026-05-05 08:03 51.70953 0.31406 17805 ft 377 kts 65°
2026-05-05 08:03 51.72112 0.35231 18385 ft 381 kts 65°
2026-05-05 08:04 51.73285 0.39101 18894 ft 386 kts 65°
2026-05-05 08:04 51.74467 0.43009 19432 ft 389 kts 65°
2026-05-05 08:04 51.75653 0.46953 19970 ft 393 kts 65°
2026-05-05 08:04 51.76847 0.50936 20500 ft 396 kts 65°
2026-05-05 08:05 51.78053 0.54958 21030 ft 400 kts 65°
2026-05-05 08:05 51.79269 0.59017 21550 ft 403 kts 65°
2026-05-05 08:05 51.80494 0.63107 22072 ft 406 kts 65°
2026-05-05 08:05 51.81715 0.67254 22538 ft 411 kts 67°
2026-05-05 08:06 51.82873 0.71504 22977 ft 415 kts 68°
2026-05-05 08:06 51.83983 0.75826 23440 ft 418 kts 69°
2026-05-05 08:06 51.85085 0.80197 23848 ft 422 kts 68°
2026-05-05 08:06 51.86475 0.84412 24233 ft 427 kts 58°
2026-05-05 08:07 51.88310 0.88209 24618 ft 431 kts 47°
2026-05-05 08:07 51.90520 0.91535 25006 ft 435 kts 41°
2026-05-05 08:07 51.92789 0.94787 25388 ft 437 kts 41°
2026-05-05 08:07 51.95069 0.98073 25771 ft 440 kts 41°
2026-05-05 08:08 51.97364 1.01403 26137 ft 444 kts 41°
2026-05-05 08:08 51.99667 1.04763 26519 ft 447 kts 41°
2026-05-05 08:08 52.01980 1.08159 26899 ft 450 kts 42°
2026-05-05 08:08 52.04302 1.11582 27298 ft 453 kts 41°
2026-05-05 08:09 52.06756 1.14806 27691 ft 454 kts 36°
2026-05-05 08:09 52.09287 1.17906 28081 ft 457 kts 36°
2026-05-05 08:09 52.11832 1.21015 28466 ft 459 kts 36°
2026-05-05 08:09 52.14359 1.24207 28847 ft 462 kts 37°
2026-05-05 08:10 52.16855 1.27518 29200 ft 464 kts 38°
2026-05-05 08:10 52.19335 1.30912 29560 ft 467 kts 39°
2026-05-05 08:10 52.21814 1.34355 29915 ft 469 kts 39°
2026-05-05 08:10 52.24328 1.37856 30233 ft 471 kts 39°
2026-05-05 08:11 52.26802 1.41287 30523 ft 473 kts 39°
2026-05-05 08:11 52.28495 1.43624 30755 ft 474 kts 39°
2026-05-05 08:11 52.31017 1.47093 31117 ft 473 kts 39°
2026-05-05 08:11 52.33515 1.50567 31555 ft 471 kts 42°
2026-05-05 08:12 52.35839 1.54349 31964 ft 470 kts 45°
2026-05-05 08:12 52.38126 1.58166 32380 ft 469 kts 45°
2026-05-05 08:12 52.40401 1.61975 32795 ft 468 kts 45°
2026-05-05 08:12 52.42671 1.65788 33215 ft 467 kts 46°
2026-05-05 08:13 52.44929 1.69598 33635 ft 465 kts 46°
2026-05-05 08:13 52.47178 1.73405 34047 ft 464 kts 46°
2026-05-05 08:13 52.49422 1.77206 34390 ft 463 kts 46°
2026-05-05 08:13 52.51661 1.81004 34720 ft 463 kts 46°
2026-05-05 08:14 52.53897 1.84805 35116 ft 461 kts 46°
2026-05-05 08:14 52.56122 1.88584 35447 ft 460 kts 46°
2026-05-05 08:14 52.58346 1.92362 35736 ft 460 kts 46°
2026-05-05 08:14 52.60326 1.95730 35979 ft 460 kts 46°
2026-05-05 08:15 52.62551 1.99525 36240 ft 461 kts 46°
2026-05-05 08:15 52.64775 2.03324 36465 ft 462 kts 46°
2026-05-05 08:15 52.67004 2.07139 36682 ft 463 kts 46°
2026-05-05 08:15 52.69238 2.10971 36913 ft 464 kts 46°
2026-05-05 08:16 52.73707 2.18664 37013 ft 464 kts 46°
2026-05-05 08:16 52.78189 2.26407 37012 ft 463 kts 46°
2026-05-05 08:17 52.82628 2.34096 37012 ft 462 kts 46°
2026-05-05 08:17 52.87074 2.41796 37016 ft 462 kts 46°
2026-05-05 08:18 52.91507 2.49500 37012 ft 462 kts 46°
2026-05-05 08:18 52.95937 2.57235 37008 ft 462 kts 46°
2026-05-05 08:19 53.00953 2.63817 37012 ft 460 kts 28°
2026-05-05 08:19 53.06671 2.68598 37007 ft 460 kts 25°
2026-05-05 08:20 53.12395 2.73354 37009 ft 460 kts 25°
2026-05-05 08:20 53.18119 2.78133 37008 ft 460 kts 25°
2026-05-05 08:21 53.23841 2.82926 37014 ft 460 kts 25°
2026-05-05 08:21 53.29562 2.87719 37016 ft 460 kts 25°
2026-05-05 08:22 53.35341 2.92315 37018 ft 460 kts 24°
2026-05-05 08:22 53.41155 2.96770 37018 ft 460 kts 24°
2026-05-05 08:23 53.46955 3.01277 37019 ft 459 kts 24°
2026-05-05 08:23 53.52739 3.05849 37019 ft 460 kts 24°
2026-05-05 08:24 53.58527 3.10437 37020 ft 460 kts 24°
2026-05-05 08:24 53.64317 3.15036 37018 ft 460 kts 24°
2026-05-05 08:25 53.70144 3.19671 37030 ft 460 kts 24°
2026-05-05 08:25 53.75936 3.24301 37027 ft 460 kts 24°
2026-05-05 08:26 53.81719 3.28938 37027 ft 460 kts 24°
2026-05-05 08:26 53.87506 3.33590 37030 ft 460 kts 24°
2026-05-05 08:27 53.93287 3.38239 37019 ft 460 kts 24°
2026-05-05 08:27 53.99063 3.42905 37023 ft 460 kts 24°
2026-05-05 08:28 54.04830 3.47603 37023 ft 460 kts 24°
2026-05-05 08:28 54.10597 3.52310 37021 ft 459 kts 24°
2026-05-05 08:29 54.16360 3.57018 37020 ft 459 kts 24°
2026-05-05 08:30 54.25010 3.64093 37019 ft 460 kts 24°
2026-05-05 08:30 54.30780 3.68822 37009 ft 460 kts 24°
2026-05-05 08:31 54.36548 3.73575 37004 ft 460 kts 24°
2026-05-05 08:31 54.42317 3.78354 37017 ft 460 kts 24°
2026-05-05 08:32 54.48081 3.83159 37015 ft 461 kts 24°
2026-05-05 08:32 54.53893 3.87993 37006 ft 461 kts 23°
2026-05-05 08:33 54.59676 3.92803 37005 ft 462 kts 24°
2026-05-05 08:33 54.65458 3.97649 37006 ft 462 kts 24°
2026-05-05 08:34 54.71248 4.02518 37018 ft 463 kts 23°
2026-05-05 08:34 54.77038 4.07404 37014 ft 463 kts 23°
2026-05-05 08:35 54.82819 4.12323 37018 ft 463 kts 24°
2026-05-05 08:35 54.88117 4.18719 37015 ft 468 kts 42°
2026-05-05 08:36 54.92573 4.26986 37014 ft 469 kts 46°
2026-05-05 08:36 54.96979 4.35360 37027 ft 469 kts 45°
2026-05-05 08:37 55.01389 4.43767 37015 ft 470 kts 46°
2026-05-05 08:37 55.05805 4.52183 37010 ft 471 kts 45°
2026-05-05 08:38 55.10223 4.60622 37009 ft 471 kts 46°
2026-05-05 08:38 55.14627 4.69098 37011 ft 471 kts 46°
2026-05-05 08:39 55.19032 4.77597 37030 ft 472 kts 45°
2026-05-05 08:39 55.23437 4.86120 37014 ft 472 kts 46°
2026-05-05 08:40 55.27836 4.94694 37011 ft 473 kts 46°
2026-05-05 08:40 55.32004 5.03606 37008 ft 474 kts 53°
2026-05-05 08:41 55.35802 5.13182 37009 ft 475 kts 53°
2026-05-05 08:41 55.39573 5.22727 37009 ft 475 kts 53°
2026-05-05 08:42 55.43334 5.32281 37022 ft 475 kts 53°
2026-05-05 08:42 55.47096 5.41881 37013 ft 476 kts 53°
2026-05-05 08:43 55.50845 5.51501 37012 ft 476 kts 53°
2026-05-05 08:43 55.54599 5.61146 37003 ft 477 kts 53°
2026-05-05 08:44 55.58345 5.70807 37007 ft 477 kts 53°
2026-05-05 08:44 55.62081 5.80484 37009 ft 477 kts 54°
2026-05-05 08:45 55.65183 5.88551 37040 ft 477 kts 53°
2026-05-05 08:45 55.68943 5.98336 37014 ft 478 kts 53°
2026-05-05 08:46 55.72675 6.08112 37005 ft 479 kts 54°
2026-05-05 08:46 55.76397 6.17908 37004 ft 479 kts 54°
2026-05-05 08:47 55.80119 6.27734 37001 ft 479 kts 54°
2026-05-05 08:47 55.83834 6.37586 37007 ft 480 kts 54°
2026-05-05 08:48 55.87540 6.47466 37011 ft 480 kts 54°
2026-05-05 08:48 55.91238 6.57355 37015 ft 480 kts 54°
2026-05-05 08:49 55.94936 6.67271 37021 ft 480 kts 54°
2026-05-05 08:49 55.98625 6.77198 37023 ft 480 kts 54°
2026-05-05 08:50 56.02304 6.87153 37017 ft 480 kts 54°
2026-05-05 08:50 56.05972 6.97140 37020 ft 481 kts 55°
2026-05-05 08:51 56.09641 7.07156 37022 ft 481 kts 55°
2026-05-05 08:51 56.13304 7.17183 37035 ft 481 kts 54°
2026-05-05 08:52 56.16965 7.27247 37025 ft 482 kts 54°
2026-05-05 08:52 56.20620 7.37345 37022 ft 483 kts 55°
2026-05-05 08:53 56.24269 7.47484 37010 ft 483 kts 55°
2026-05-05 08:53 56.27931 7.57691 37018 ft 483 kts 55°
2026-05-05 08:54 56.31568 7.67844 37022 ft 482 kts 55°
2026-05-05 08:54 56.35202 7.78025 37039 ft 483 kts 55°
2026-05-05 08:55 56.38821 7.88236 37019 ft 483 kts 55°
2026-05-05 08:55 56.42435 7.98480 37012 ft 484 kts 55°
2026-05-05 08:56 56.46041 8.08757 37011 ft 484 kts 55°
2026-05-05 08:56 56.49645 8.19054 36995 ft 485 kts 56°
2026-05-05 08:57 56.53243 8.29381 36997 ft 485 kts 56°
2026-05-05 08:57 56.56838 8.39727 37014 ft 485 kts 56°
2026-05-05 08:58 56.60423 8.50113 36993 ft 486 kts 56°
2026-05-05 08:58 56.64003 8.60536 36988 ft 487 kts 56°
2026-05-05 08:59 56.67585 8.70991 36983 ft 487 kts 56°
2026-05-05 08:59 56.71169 8.81460 36980 ft 488 kts 56°
2026-05-05 09:00 56.74745 8.91969 36976 ft 488 kts 56°
2026-05-05 09:00 56.78305 9.02530 36981 ft 489 kts 56°
2026-05-05 09:01 56.81880 9.13180 36979 ft 490 kts 56°
2026-05-05 09:01 56.85445 9.23796 36977 ft 490 kts 56°
2026-05-05 09:02 56.89006 9.34425 36975 ft 491 kts 56°
2026-05-05 09:02 56.92549 9.45098 36862 ft 492 kts 57°
2026-05-05 09:02 56.94317 9.50450 36596 ft 491 kts 57°
2026-05-05 09:03 56.96079 9.55800 36338 ft 491 kts 57°
2026-05-05 09:03 56.97849 9.61174 35616 ft 495 kts 57°
2026-05-05 09:03 56.99637 9.66606 34757 ft 501 kts 57°
2026-05-05 09:03 57.01448 9.72116 33803 ft 509 kts 57°
2026-05-05 09:04 57.03290 9.77729 32710 ft 516 kts 57°
2026-05-05 09:04 57.05139 9.83379 31887 ft 517 kts 57°
2026-05-05 09:04 57.06971 9.89011 31344 ft 511 kts 57°
2026-05-05 09:04 57.08783 9.94605 30698 ft 508 kts 57°
2026-05-05 09:05 57.10517 10.00236 30100 ft 505 kts 62°
2026-05-05 09:05 57.11938 10.06118 29509 ft 500 kts 65°
2026-05-05 09:05 57.13315 10.11947 28954 ft 494 kts 65°
2026-05-05 09:05 57.14682 10.17701 28412 ft 487 kts 65°
2026-05-05 09:06 57.16031 10.23376 27875 ft 482 kts 65°
2026-05-05 09:06 57.17363 10.29010 27338 ft 477 kts 65°
2026-05-05 09:06 57.18677 10.34584 26815 ft 472 kts 65°
2026-05-05 09:06 57.19975 10.40104 26292 ft 467 kts 65°
2026-05-05 09:07 57.21259 10.45578 25788 ft 462 kts 65°
2026-05-05 09:07 57.22522 10.50986 25295 ft 458 kts 65°
2026-05-05 09:07 57.23774 10.56378 24822 ft 454 kts 65°
2026-05-05 09:07 57.25008 10.61719 24339 ft 450 kts 65°
2026-05-05 09:08 57.26247 10.67088 23890 ft 447 kts 65°
2026-05-05 09:08 57.27462 10.72347 23415 ft 444 kts 65°
2026-05-05 09:08 57.28670 10.77567 22928 ft 439 kts 65°
2026-05-05 09:08 57.30084 10.82461 22765 ft 424 kts 53°
2026-05-05 09:09 57.31724 10.86887 22603 ft 412 kts 52°
2026-05-05 09:09 57.33335 10.91246 22133 ft 409 kts 52°
2026-05-05 09:09 57.34936 10.95581 21659 ft 406 kts 52°
2026-05-05 09:09 57.36527 10.99889 21184 ft 404 kts 52°
2026-05-05 09:10 57.38116 11.04185 20682 ft 403 kts 52°
2026-05-05 09:10 57.39695 11.08462 20186 ft 402 kts 52°
2026-05-05 09:10 57.41268 11.12732 19676 ft 401 kts 52°
2026-05-05 09:10 57.42839 11.17008 19157 ft 400 kts 52°
2026-05-05 09:11 57.44407 11.21274 18634 ft 401 kts 52°
2026-05-05 09:11 57.45965 11.25527 18075 ft 401 kts 52°
2026-05-05 09:11 57.47530 11.29813 17507 ft 400 kts 52°
2026-05-05 09:11 57.49083 11.34079 16980 ft 397 kts 52°
2026-05-05 09:12 57.50626 11.38323 16445 ft 395 kts 52°
2026-05-05 09:12 57.52161 11.42544 15907 ft 393 kts 52°
2026-05-05 09:12 57.53691 11.46752 15373 ft 391 kts 52°
2026-05-05 09:12 57.55207 11.50929 14872 ft 389 kts 52°
2026-05-05 09:13 57.56723 11.55119 14303 ft 389 kts 53°
2026-05-05 09:13 57.58226 11.59288 13685 ft 388 kts 53°
2026-05-05 09:13 57.59750 11.63521 12570 ft 397 kts 53°
2026-05-05 09:13 57.61274 11.67765 11945 ft 389 kts 53°
2026-05-05 09:14 57.62760 11.71914 11313 ft 381 kts 52°
2026-05-05 09:14 57.64207 11.75968 11004 ft 365 kts 52°
2026-05-05 09:14 57.65577 11.79814 10909 ft 347 kts 52°
2026-05-05 09:14 57.66882 11.83478 10759 ft 331 kts 52°
2026-05-05 09:15 57.68144 11.87021 10638 ft 316 kts 52°
2026-05-05 09:15 57.69336 11.90376 10511 ft 304 kts 51°
2026-05-05 09:15 57.70487 11.93612 10295 ft 296 kts 51°
2026-05-05 09:15 57.71622 11.96792 10003 ft 292 kts 51°
2026-05-05 09:16 57.72738 11.99923 9690 ft 287 kts 51°
2026-05-05 09:16 57.73840 12.03024 9360 ft 284 kts 51°
2026-05-05 09:16 57.74923 12.06077 9037 ft 280 kts 51°
2026-05-05 09:16 57.75995 12.09103 8712 ft 277 kts 51°
2026-05-05 09:17 57.77050 12.12094 8343 ft 275 kts 51°
2026-05-05 09:17 57.77748 12.14074 8079 ft 275 kts 52°
2026-05-05 09:17 57.78799 12.17061 7684 ft 274 kts 52°
2026-05-05 09:17 57.79854 12.20041 7274 ft 273 kts 50°
2026-05-05 09:18 57.81122 12.22602 6889 ft 265 kts 32°
2026-05-05 09:18 57.82678 12.24361 6513 ft 259 kts 20°
2026-05-05 09:18 57.84297 12.25808 6146 ft 257 kts 20°
2026-05-05 09:18 57.85888 12.27245 5879 ft 251 kts 20°
2026-05-05 09:19 57.87438 12.28651 5610 ft 245 kts 20°
2026-05-05 09:19 57.88956 12.30031 5365 ft 239 kts 20°
2026-05-05 09:19 57.90349 12.31673 5157 ft 237 kts 41°
2026-05-05 09:19 57.91116 12.34337 5024 ft 233 kts 77°
2026-05-05 09:20 57.90990 12.37277 4890 ft 225 kts 114°
2026-05-05 09:20 57.90045 12.39500 4765 ft 216 kts 152°
2026-05-05 09:20 57.88652 12.40478 4646 ft 211 kts 173°
2026-05-05 09:20 57.87236 12.41015 4507 ft 210 kts 175°
2026-05-05 09:21 57.85775 12.41505 4358 ft 211 kts 175°
2026-05-05 09:21 57.84341 12.41968 4196 ft 206 kts 175°
2026-05-05 09:21 57.82934 12.42368 3925 ft 203 kts 181°
2026-05-05 09:21 57.81587 12.41961 3699 ft 192 kts 207°
2026-05-05 09:22 57.80391 12.40895 3406 ft 189 kts 212°
2026-05-05 09:22 57.79227 12.39821 3142 ft 185 kts 211°
2026-05-05 09:22 57.78075 12.38761 2893 ft 184 kts 211°
2026-05-05 09:22 57.76929 12.37710 2624 ft 182 kts 211°
2026-05-05 09:23 57.75810 12.36686 2385 ft 176 kts 212°
2026-05-05 09:23 57.74724 12.35692 2139 ft 172 kts 212°
2026-05-05 09:23 57.73666 12.34724 1904 ft 166 kts 212°
2026-05-05 09:23 57.72681 12.33827 1683 ft 147 kts 211°
2026-05-05 09:24 57.71801 12.33020 1466 ft 136 kts 211°
2026-05-05 09:24 57.70965 12.32259 1285 ft 132 kts 211°
2026-05-05 09:24 57.70150 12.31512 1067 ft 129 kts 212°
2026-05-05 09:24 57.69340 12.30770 915 ft 130 kts 211°
2026-05-05 09:25 57.68545 12.30048 766 ft 127 kts 211°
2026-05-05 09:25 57.67754 12.29324 595 ft 126 kts 211°
2026-05-05 09:25 57.66994 12.28623 514 ft 107 kts 205°
2026-05-05 09:25 57.66476 12.28156 511 ft 59 kts 206°
2026-05-05 09:26 57.66142 12.27850 509 ft 53 kts 206°
2026-05-05 09:26 57.65900 12.27671 506 ft 28 kts 187°
2026-05-05 09:26 57.65767 12.27668 505 ft 11 kts 174°
2026-05-05 09:26 57.65712 12.27748 505 ft 9 kts 97°
2026-05-05 09:27 57.65753 12.27843 505 ft 11 kts 27°
2026-05-05 09:27 57.65825 12.27909 506 ft 13 kts 26°
2026-05-05 09:27 57.65909 12.27983 507 ft 14 kts 26°
2026-05-05 09:27 57.66003 12.28071 508 ft 16 kts 26°
2026-05-05 09:28 57.66105 12.28164 509 ft 17 kts 27°
2026-05-05 09:28 57.66215 12.28265 510 ft 18 kts 27°
2026-05-05 09:28 57.66336 12.28374 511 ft 20 kts 24°
2026-05-05 09:28 57.66460 12.28488 512 ft 19 kts 27°
2026-05-05 09:29 57.66576 12.28594 512 ft 18 kts 25°
2026-05-05 09:29 57.66682 12.28690 512 ft 16 kts 26°
2026-05-05 09:29 57.66779 12.28776 513 ft 15 kts 26°
2026-05-05 09:29 57.66829 12.28861 513 ft 8 kts 80°
2026-05-05 09:30 57.66820 12.28925 516 ft 4 kts 114°
2026-05-05 09:30 57.66800 12.29000 516 ft 7 kts 116°
2026-05-05 09:30 57.66780 12.29079 516 ft 7 kts 116°
2026-05-05 09:30 57.66760 12.29153 516 ft 6 kts 122°
2026-05-05 09:31 57.66741 12.29217 516 ft 5 kts 116°
2026-05-05 09:31 57.66732 12.29253 516 ft 2 kts 116°
2026-05-05 09:31 57.66730 12.29261 516 ft 0 kts 116°